Weather History for KD95 - January, 2014

Change the Weather History Date:

Saturday, January 4, 2014

  Actual Average (KFNT) Record (KFNT)
Temperature  
Mean Temperature 22 °F 23 °F  
Max Temperature 31 °F 30 °F 61 °F (1997)
Min Temperature 12 °F 16 °F -16 °F (1981)
Degree Days  
Heating Degree Days 44 42  
Month to date heating degree days 167  
Since 1 July heating degree days 2812  
Cooling Degree Days 0 0  
Month to date cooling degree days 0  
Year to date cooling degree days 0  
Moisture  
Dew Point 14 °F    
Average Humidity 70    
Maximum Humidity 99    
Minimum Humidity 55    
Precipitation  
Precipitation 0.00 in 0.06 in 0.79 in (1993)
Month to date precipitation 0.23  
Year to date precipitation 0.23  
Snow  
Snow 0.00 in 0.40 in 3.50 in ()
Month to date snowfall 1.7  
Since 1 July snowfall 16.4  
Snow Depth -    
Sea Level Pressure  
Sea Level Pressure 29.93 in    
Wind  
Wind Speed 15 mph (SW)    
Max Wind Speed 23 mph    
Max Gust Speed 33 mph    
Visibility 8 miles    
Events Snow    
T = Trace of Precipitation, MM = Missing Value Source: NWS Daily Summary

Daily Weather History Graph

Daily Weather History Graph

Search for Another Location

Airport or City:

Trip Planner

Search our weather history database for the weather conditions in past years. The results will help you decide how hot, cold, wet, or windy it might be!

Date:

Astronomy

Jan. 04, 2014 Rise Set
Actual Time 8:04 AM EST 5:11 PM EST
Civil Twilight 7:32 AM EST 5:43 PM EST
Nautical Twilight 6:56 AM EST 6:19 PM EST
Astronomical Twilight 6:22 AM EST 6:53 PM EST
Moon 10:03 AM EST (1/4) 9:37 PM EST (1/4)
Length of Visible Light 10h 11m
Length of Day
9h 07m
Waxing Crescent, 15% of the Moon is Illuminated
Jan 4
Waxing Crescent
Jan 7
First Quarter
Jan 15
Full
Jan 24
Last Quarter
Jan 30
New

Hourly Weather History & Observations

Time (EST) Temp. Windchill Dew Point Humidity Pressure Visibility Wind Dir Wind Speed Gust Speed Precip Events Conditions
12:13 AM 12.7 °F -4.1 °F 1.8 °F 62% 30.07 in 10.0 mi SSW 17.3 mph 23.0 mph N/A   Clear
12:33 AM 12.7 °F -3.0 °F 2.3 °F 63% 30.04 in 10.0 mi South 15.0 mph 26.5 mph N/A   Clear
12:54 AM 12.7 °F -3.0 °F 3.2 °F 66% 30.03 in 10.0 mi SSW 15.0 mph 29.9 mph N/A   Clear
1:13 AM 13.1 °F -5.9 °F 3.2 °F 65% 30.02 in 10.0 mi SSW 23.0 mph 31.1 mph N/A   Clear
1:34 AM 13.5 °F -5.0 °F 3.4 °F 64% 30.01 in 10.0 mi SSW 21.9 mph 28.8 mph N/A   Clear
1:54 AM 13.6 °F -3.5 °F 3.6 °F 64% 30.00 in 10.0 mi SSW 18.4 mph 33.4 mph N/A   Clear
2:13 AM 13.8 °F -4.1 °F 3.9 °F 65% 30.00 in 10.0 mi SSW 20.7 mph 24.2 mph N/A   Clear
2:34 AM 14.0 °F -2.5 °F 4.5 °F 66% 30.00 in 10.0 mi SSW 17.3 mph 26.5 mph N/A   Clear
2:53 AM 14.4 °F -2.5 °F 4.1 °F 64% 30.00 in 10.0 mi SSW 18.4 mph 26.5 mph N/A   Clear
3:14 AM 14.4 °F -1.0 °F 3.9 °F 63% 29.99 in 10.0 mi SSW 15.0 mph 23.0 mph N/A   Clear
3:34 AM 14.2 °F -2.3 °F 4.1 °F 64% 29.98 in 10.0 mi SSW 17.3 mph 26.5 mph N/A   Clear
3:53 AM 14.2 °F -1.7 °F 4.1 °F 64% 29.97 in 10.0 mi SSW 16.1 mph 23.0 mph N/A   Clear
4:14 AM 14.5 °F -0.7 °F 4.1 °F 63% 29.96 in 10.0 mi SSW 15.0 mph 25.3 mph N/A   Clear
4:33 AM 14.5 °F -0.7 °F 4.5 °F 64% 29.95 in 10.0 mi SSW 15.0 mph 23.0 mph N/A   Clear
4:54 AM 14.7 °F 1.4 °F 4.1 °F 63% 29.95 in 10.0 mi SSW 11.5 mph 18.4 mph N/A   Clear
5:14 AM 14.9 °F -0.3 °F 4.6 °F 64% 29.94 in 10.0 mi SSW 15.0 mph 20.7 mph N/A   Clear
5:33 AM 15.8 °F -0.2 °F 5.0 °F 62% 29.94 in 10.0 mi SSW 17.3 mph 24.2 mph N/A   Clear
5:54 AM 15.6 °F 0.1 °F 5.0 °F 63% 29.92 in 10.0 mi SSW 16.1 mph 23.0 mph N/A   Clear
6:13 AM 15.8 °F 1.4 °F 5.0 °F 62% 29.92 in 10.0 mi SSW 13.8 mph 18.4 mph N/A   Clear
6:34 AM 16.9 °F 2.8 °F 5.2 °F 60% 29.92 in 10.0 mi SSW 13.8 mph 25.3 mph N/A   Scattered Clouds
6:54 AM 16.7 °F 3.2 °F 5.7 °F 62% 29.91 in 10.0 mi SSW 12.7 mph 19.6 mph N/A   Scattered Clouds
7:13 AM 17.4 °F 2.4 °F 5.7 °F 60% 29.90 in 10.0 mi SSW 16.1 mph 23.0 mph N/A   Scattered Clouds
7:34 AM 17.6 °F 2.7 °F 5.9 °F 60% 29.89 in 10.0 mi SSW 16.1 mph 23.0 mph N/A   Clear
7:53 AM 18.1 °F 3.9 °F 6.4 °F 60% 29.88 in 10.0 mi SSW 15.0 mph 25.3 mph N/A   Clear
8:13 AM 18.5 °F 2.9 °F 6.8 °F 60% 29.87 in 10.0 mi SSW 18.4 mph 28.8 mph N/A   Clear
8:34 AM 19.2 °F 3.8 °F 7.3 °F 60% 29.88 in 10.0 mi SSW 18.4 mph 26.5 mph N/A   Clear
8:53 AM 19.8 °F 4.5 °F 7.5 °F 59% 29.88 in 10.0 mi SSW 18.4 mph 25.3 mph N/A   Clear
9:14 AM 20.1 °F 5.9 °F 7.7 °F 59% 29.89 in 10.0 mi SW 16.1 mph 21.9 mph N/A   Clear
9:34 AM 20.7 °F 6.1 °F 8.4 °F 59% 29.89 in 10.0 mi SW 17.3 mph 23.0 mph N/A   Clear
9:53 AM 21.7 °F 8.5 °F 9.1 °F 58% 29.88 in 10.0 mi SW 15.0 mph - N/A   Clear
10:14 AM 21.2 °F 7.8 °F 8.8 °F 59% 29.88 in 10.0 mi SW 15.0 mph 24.2 mph N/A   Clear
10:33 AM 22.3 °F 8.2 °F 9.7 °F 58% 29.88 in 10.0 mi SSW 17.3 mph 21.9 mph N/A   Clear
10:54 AM 23.2 °F 10.3 °F 10.4 °F 58% 29.88 in 10.0 mi SW 15.0 mph 20.7 mph N/A   Clear
11:14 AM 24.6 °F 11.3 °F 11.5 °F 57% 29.88 in 10.0 mi SW 17.3 mph 23.0 mph N/A   Clear
11:33 AM 25.0 °F 14.2 °F 11.5 °F 57% 29.87 in 10.0 mi SW 11.5 mph 20.7 mph N/A   Clear
11:54 AM 26.6 °F 15.2 °F 13.1 °F 57% 29.86 in 10.0 mi SW 13.8 mph 21.9 mph N/A   Clear
12:13 PM 28.0 °F 16.1 °F 14.5 °F 57% 29.85 in 10.0 mi SW 16.1 mph 21.9 mph N/A   Clear
12:33 PM 28.8 °F 17.0 °F 14.7 °F 56% 29.84 in 10.0 mi SW 16.1 mph 21.9 mph N/A   Clear
12:54 PM 29.1 °F 18.4 °F 15.6 °F 57% 29.83 in 10.0 mi WSW 13.8 mph 25.3 mph N/A   Clear
1:13 PM 29.7 °F 17.8 °F 15.6 °F 56% 29.83 in 10.0 mi WSW 17.3 mph 21.9 mph N/A   Clear
1:34 PM 29.8 °F 19.3 °F 15.8 °F 56% 29.83 in 10.0 mi SW 13.8 mph 20.7 mph N/A   Clear
1:53 PM 30.7 °F 20.4 °F 16.3 °F 55% 29.83 in 10.0 mi SW 13.8 mph 19.6 mph N/A   Clear
2:13 PM 31.1 °F 22.4 °F 17.1 °F 56% 29.84 in 10.0 mi SW 10.4 mph 19.6 mph N/A   Scattered Clouds
2:34 PM 31.5 °F 22.3 °F 17.4 °F 56% 29.85 in 10.0 mi WSW 11.5 mph 16.1 mph N/A   Scattered Clouds
2:53 PM 31.8 °F 21.4 °F 18.5 °F 58% 29.86 in 10.0 mi WSW 15.0 mph 18.4 mph N/A   Mostly Cloudy
3:14 PM 31.6 °F 20.7 °F 19.0 °F 60% 29.86 in 10.0 mi SW 16.1 mph 21.9 mph N/A   Overcast
3:34 PM 31.6 °F 22.6 °F 19.2 °F 60% 29.87 in 10.0 mi WSW 11.5 mph 16.1 mph N/A   Overcast
3:54 PM 31.8 °F 23.9 °F 18.9 °F 59% 29.88 in 10.0 mi WSW 9.2 mph 18.4 mph N/A   Overcast
4:14 PM 31.6 °F 23.7 °F 19.4 °F 61% 29.89 in 10.0 mi WSW 9.2 mph - N/A   Overcast
4:33 PM 31.6 °F 23.7 °F 19.8 °F 62% 29.90 in 10.0 mi WSW 9.2 mph - N/A   Overcast
4:54 PM 31.1 °F 23.7 °F 20.5 °F 65% 29.90 in 10.0 mi WSW 8.1 mph 16.1 mph N/A   Overcast
5:13 PM 30.2 °F 19.8 °F 22.1 °F 72% 29.91 in 7.0 mi WSW 13.8 mph 18.4 mph N/A Snow Light Snow
5:34 PM 29.1 °F 18.9 °F 24.4 °F 83% 29.91 in 3.0 mi SW 12.7 mph - N/A Snow Light Snow
5:54 PM 28.4 °F 20.4 °F 25.3 °F 88% 29.93 in 4.0 mi WSW 8.1 mph - N/A Snow Light Snow
6:13 PM 28.4 °F 22.2 °F 25.3 °F 88% 29.94 in 10.0 mi WSW 5.8 mph - N/A Snow Light Snow
6:34 PM 28.8 °F 20.9 °F 25.0 °F 86% 29.94 in 3.0 mi WSW 8.1 mph - N/A Snow Light Snow
6:53 PM 28.4 °F 21.2 °F 25.7 °F 90% 29.96 in 2.5 mi WSW 6.9 mph - N/A Snow Light Snow
7:14 PM 27.5 °F 20.2 °F 26.6 °F 96% 29.96 in 1.5 mi SW 6.9 mph - N/A Snow Light Snow
7:34 PM 27.3 °F 18.4 °F 26.6 °F 97% 29.97 in 1.5 mi SSW 9.2 mph - N/A Snow Light Snow
7:53 PM 27.1 °F 19.7 °F 26.4 °F 97% 29.98 in 1.8 mi SSW 6.9 mph - N/A Snow Light Snow
8:14 PM 27.0 °F 19.5 °F 26.2 °F 97% 29.98 in 2.5 mi SSW 6.9 mph - N/A Snow Light Snow
8:33 PM 27.0 °F 20.5 °F 26.2 °F 97% 29.98 in 2.0 mi SSW 5.8 mph - N/A Snow Light Snow
8:53 PM 27.0 °F 21.6 °F 26.2 °F 97% 29.98 in 1.8 mi SSW 4.6 mph - N/A Snow Light Snow
9:14 PM 26.8 °F 20.2 °F 26.4 °F 99% 29.98 in 3.0 mi SSW 5.8 mph - N/A Snow Light Snow
9:33 PM 26.6 °F 20.0 °F 26.2 °F 99% 29.98 in 2.5 mi SSW 5.8 mph - N/A Snow Light Snow
9:54 PM 27.0 °F 20.5 °F 26.4 °F 98% 29.99 in 2.0 mi SSW 5.8 mph - N/A Snow Light Snow
10:14 PM 27.1 °F 19.7 °F 26.4 °F 97% 29.99 in 2.0 mi SSW 6.9 mph - N/A Snow Light Snow
10:33 PM 27.1 °F 19.7 °F 26.4 °F 97% 29.99 in 2.0 mi SSW 6.9 mph - N/A Snow Light Snow
10:54 PM 27.1 °F 19.7 °F 26.4 °F 97% 29.99 in 2.0 mi SSW 6.9 mph - N/A Snow Light Snow
11:13 PM 27.5 °F 19.3 °F 26.6 °F 96% 29.99 in 1.8 mi SW 8.1 mph - N/A Snow Light Snow
11:34 PM 27.9 °F 19.8 °F 27.3 °F 98% 29.99 in 1.5 mi SW 8.1 mph - N/A Snow Light Snow
11:54 PM 28.0 °F 20.8 °F 27.5 °F 98% 29.99 in 1.2 mi SW 6.9 mph - N/A Snow Light Snow